Simultaneous Nadir Overpasses (SNOs) Predictions

Prediction of SNOs between NOAA-20 and METOP-C Satellite Orbit:

Table of predicted SNOs for the next 14.0 days since TLE Epoch: 2/25/2023
Index Date (NOAA-20) Time (NOAA-20) Lat,Lon (NOAA-20) SZA (NOAA-20 ) Date (METOP-C) Time (METOP-C) Lat,Lon (METOP-C) SZA (METOP-C ) Distance(km) Time Diff (sec)
1 03/09/2023 16:23:42 73.52, -75.76 78.24 03/09/2023 16:24:47 73.48, -72.68 78.02 97.43 65
2 03/09/2023 17:14:25 -73.46, 91.71 101.85 03/09/2023 17:15:32 -73.39, 94.43 102.09 86.62 67
3 03/09/2023 18:05:06 73.23,-100.46 77.88 03/09/2023 18:06:15 73.16, -98.74 77.70 55.89 69
4 03/09/2023 18:55:49 -73.16, 67.00 102.21 03/09/2023 18:56:59 -73.11, 68.49 102.36 48.17 70
5 03/09/2023 19:46:30 72.93,-125.18 77.52 03/09/2023 19:47:43 72.83,-124.78 77.39 17.11 73
6 03/09/2023 20:37:13 -72.86, 42.27 102.57 03/09/2023 20:38:26 -72.84, 42.56 102.63 9.81 73
7 03/09/2023 21:27:57 72.78,-150.24 77.33 03/09/2023 21:29:06 72.76,-150.27 77.29 2.37 69
8 03/09/2023 22:18:41 -72.76, 17.10 102.71 03/09/2023 22:19:49 -72.76, 17.07 102.72 1.26 68
9 03/09/2023 23:09:27 72.78,-175.62 77.30 03/09/2023 23:10:27 72.78,-175.55 77.29 2.43 60
10 03/10/2023 00:00:11 -72.76, -8.27 102.73 03/10/2023 00:01:11 -72.74, -8.32 102.77 2.69 60
11 03/10/2023 00:50:57 72.78, 159.00 77.28 03/10/2023 00:51:49 72.76, 159.06 77.24 2.86 52
12 03/10/2023 01:41:41 -72.76, -33.65 102.76 03/10/2023 01:42:32 -72.77, -33.60 102.77 1.86 51
13 03/10/2023 02:32:26 72.73, 133.73 77.20 03/10/2023 02:33:11 72.74, 133.68 77.20 1.93 45
14 03/10/2023 03:23:11 -72.77, -59.03 102.79 03/10/2023 03:23:54 -72.75, -58.99 102.82 2.52 43
15 03/10/2023 04:13:56 72.73, 108.35 77.17 03/10/2023 04:14:33 72.72, 108.29 77.15 2.68 37
16 03/10/2023 05:04:40 -72.72, -84.30 102.87 03/10/2023 05:05:16 -72.72, -84.37 102.86 2.42 36
17 03/10/2023 05:55:26 72.73, 82.97 77.14 03/10/2023 05:55:54 72.74, 83.01 77.14 1.66 28
18 03/10/2023 06:46:10 -72.72,-109.68 102.89 03/10/2023 06:46:38 -72.70,-109.76 102.91 3.15 28
19 03/10/2023 07:36:56 72.74, 57.59 77.12 03/10/2023 07:37:16 72.72, 57.62 77.10 1.89 20
20 03/10/2023 08:27:40 -72.72,-135.06 102.92 03/10/2023 08:27:59 -72.73,-135.04 102.91 1.23 19
21 03/10/2023 09:18:25 72.69, 32.32 77.04 03/10/2023 09:18:38 72.70, 32.24 77.05 3.05 13
22 03/10/2023 10:09:10 -72.72,-160.44 102.94 03/10/2023 10:09:21 -72.71,-160.43 102.96 1.71 11
23 03/10/2023 10:59:55 72.69, 6.94 77.01 03/10/2023 11:00:00 72.68, 6.85 77.00 3.36 5
24 03/10/2023 11:50:39 -72.67, 174.29 103.03 03/10/2023 11:50:43 -72.68, 174.19 103.01 3.56 4
25 03/10/2023 12:41:25 72.69, -18.44 76.98 03/10/2023 12:41:21 72.70, -18.43 77.00 1.48 4
26 03/10/2023 13:32:10 -72.73, 148.80 103.00 03/10/2023 13:32:04 -72.71, 148.90 103.01 3.61 6
27 03/10/2023 14:22:55 72.69, -43.82 76.96 03/10/2023 14:22:43 72.68, -43.82 76.95 1.27 12
28 03/10/2023 15:13:39 -72.68, 123.53 103.08 03/10/2023 15:13:26 -72.69, 123.52 103.06 1.49 13
29 03/10/2023 16:04:25 72.69, -69.20 76.93 03/10/2023 16:04:04 72.71, -69.10 76.95 3.51 21
30 03/10/2023 16:55:09 -72.68, 98.15 103.10 03/10/2023 16:54:48 -72.67, 98.13 103.11 1.47 21
31 03/10/2023 17:45:55 72.70, -94.57 76.91 03/10/2023 17:45:26 72.69, -94.49 76.90 3.04 29
32 03/10/2023 18:36:39 -72.68, 72.77 103.13 03/10/2023 18:36:09 -72.70, 72.85 103.11 2.97 30
33 03/10/2023 19:27:24 72.65,-119.85 76.83 03/10/2023 19:26:48 72.66,-119.87 76.85 2.02 36
34 03/10/2023 20:18:09 -72.68, 47.40 103.15 03/10/2023 20:17:31 -72.67, 47.46 103.16 2.50 38
35 03/10/2023 21:08:54 72.65,-145.23 76.80 03/10/2023 21:08:10 72.64,-145.26 76.80 1.47 44
36 03/10/2023 21:59:38 -72.63, 22.12 103.24 03/10/2023 21:58:53 -72.65, 22.08 103.21 2.31 45
37 03/10/2023 22:50:24 72.65,-170.60 76.77 03/10/2023 22:49:31 72.67,-170.54 76.80 2.86 53
38 03/10/2023 23:41:08 -72.64, -3.26 103.26 03/10/2023 23:40:15 -72.63, -3.31 103.26 1.98 53
39 03/11/2023 00:31:54 72.65, 164.02 76.75 03/11/2023 00:30:53 72.65, 164.07 76.75 1.96 61
40 03/11/2023 01:22:38 -72.64, -28.64 103.29 03/11/2023 01:21:36 -72.66, -28.59 103.26 2.43 62
41 03/11/2023 02:13:23 72.60, 138.74 76.67 03/11/2023 02:12:15 72.62, 138.68 76.71 2.86 68
42 03/11/2023 03:04:08 -72.64, -54.01 103.31 03/11/2023 03:02:58 -72.63, -53.98 103.31 1.42 70
43 03/11/2023 03:54:52 72.56, 113.47 76.59 03/11/2023 03:53:38 72.55, 113.20 76.61 9.08 74
44 03/11/2023 04:45:36 -72.54, -79.19 103.45 03/11/2023 04:44:22 -72.51, -79.57 103.44 13.30 74



Historial Predications of SNOs between NOAA-20 and METOP-C
